Racecast

Adeline Lota

Virginia Beach Flames (VA) · - · Compare head to head

Athlete rating 121.3 2026 TF season
Best race 126.3 TF
Races 27
Seasons 1 2026
Rating scale ?
Speed rating — all races

Track & Field

TF speed rating

2026 TF 114.5

Virginia Beach Flames (VA) · Grade -

Date Meet Event Result Place Rating Difficulty PR/SR Flags
2026-06-13 AAU Virginia District Qualifier - South javelin 17' 8" -0.033
2026-06-13 AAU Virginia District Qualifier - South 800m 3:00.21 1st · 1st on team 124.5 -0.033 ★PR SR
2026-06-13 AAU Virginia District Qualifier - South 1500m 6:12.79 1st · 1st on team 121.4 -0.033
2026-05-30 Va Beach Flames Invite javelin 15' 8" -0.023
2026-05-30 Va Beach Flames Invite 800m 3:12 3rd · 2nd on team 118.0 -0.023
2026-05-30 Va Beach Flames Invite 1500m 6:15.37 2nd · 1st on team 121.8 -0.023
2026-05-24 HR Hurricanes CAT 5 Invite javelin 16' 6" -0.035
2026-05-24 HR Hurricanes CAT 5 Invite 1500m 5:59.47 1st · 1st on team 125.6 -0.035
2026-05-24 HR Hurricanes CAT 5 Invite 800m 3:08.22 4th · 2nd on team 118.9 -0.035 PR SR
2026-05-09 VA "Legends" T & F Youth Invite javelin 5.30m -0.033
2026-05-09 VA "Legends" T & F Youth Invite 1500m 5:58.52 1st · 1st on team 126.3 -0.033 ★PR ★R SR RSR
2026-05-02 The DMV Track and Field Classic 800m 3:17.32 2nd · 2nd on team 115.0 -0.021
2026-05-02 The DMV Track and Field Classic 1500m 6:21.38 1st · 1st on team 120.1 -0.021
2026-04-26 Virginia Pride Spring Kick-Off 800m 3:09.59 3rd · 1st on team 118.7 -0.029 PR SR
2026-04-26 Virginia Pride Spring Kick-Off 400m 1:25.17 5th · 2nd on team -0.029 ★PR SR
2026-03-06 AAU Indoor National Championship 800m 3:21.84 12th · 1st on team 111.2 -0.036 PR SR
2026-03-06 AAU Indoor National Championship 1500m 6:52.11 13th · 1st on team 109.8 -0.036
2026-02-28 BWSP Queens and Kings Championships 800m 3:27.78 3rd · 2nd on team 108.9 -0.024
2026-02-28 BWSP Queens and Kings Championships 1500m 6:19.14 1st · 1st on team 120.5 -0.024 PR R SR RSR
2026-02-22 3rd Annual HRH Winter Storm Classic 800m 3:32.63 3rd · 3rd on team 106.4 -0.024
2026-02-22 3rd Annual HRH Winter Storm Classic 1500m 6:37.96 1st · 1st on team 114.8 -0.024 PR R SR RSR
2026-01-31 BWSP Queens and Kings - Meet 3 800m 3:28.44 3rd · 3rd on team 108.6 -0.024
2026-01-31 BWSP Queens and Kings - Meet 3 1500m 6:44.3 1st · 1st on team 113.0 -0.024 R RSR
2026-01-25 Virginia Beach Flames Invitational 1500m 6:41.59 2nd · 2nd on team 112.7 -0.036 PR R SR RSR
2026-01-25 Virginia Beach Flames Invitational 800m 3:26.71 2nd · 2nd on team 108.6 -0.036 PR SR
2026-01-03 BWSP Queens and Kings - Meet 1 1500m 7:37.22 1st · 1st on team 99.9 -0.024 PR R SR RSR
2026-01-03 BWSP Queens and Kings - Meet 1 800m 3:58.86 3rd · 2nd on team 94.7 -0.024 PR SR